Regional Weather Roundup
Issued by NWS

Home | Current Version | Previous Version | Text Only | Print | Product List | Glossary Off
Versions: 1 2 3 4 5 6 7 8 9 10 11 12 13 14 15 16 17 18 19 20 21 22 23 24 25 26 27 28 29 30 31 32 33 34 35 36 37 38 39 40 41 42 43 44 45 46 47 48 49 50

000
ASUS43 KDMX 191701
RWRIA

WEATHER ROUNDUP FOR IOWA
NATIONAL WEATHER SERVICE DES MOINES IA
1100 AM CST SUN NOV 19 2017

NOTE: "FAIR" INDICATES FEW OR NO CLOUDS BELOW 12,000 FEET WITH NO
SIGNIFICANT WEATHER AND/OR OBSTRUCTIONS TO VISIBILITY.

* - THESE STATIONS ARE NOT NWS STATIONS...THUS NOT UNDER NWS
QUALITY CONTROL.  THEY ALSO DO NOT REPORT WEATHER SUCH
AS PRECIPITATION OR FOG.

IAZ001>003-012>014-020>022-031>034-043>046-191800-
   NORTHWEST IOWA

CITY           SKY/WX    TMP DP  RH WIND       PRES   REMARKS
CARROLL *      SUNNY     39  21  48 SW14      30.13F WCI  31
CHEROKEE *     SUNNY     37  25  60 SW7       30.10F WCI  32
DENISON *      SUNNY     39  23  52 SW13G20   30.15F WCI  32
LE MARS *      SUNNY     39  28  65 S8        30.09F WCI  34
ORANGE CITY *  SUNNY     39  28  65 SW8       30.08F WCI  34
SHELDON *      SUNNY     37  25  60 SW9       30.06F WCI  31
SIOUX CITY     SUNNY     40  28  62 S7        30.12F
SPENCER        SUNNY     38  22  52 SW13      30.08F WCI  30
STORM LAKE *   CLOUDY    37  21  52 SW16G23   30.09F WCI  28
$$

IAZ055>058-069>071-079>083-090>094-191800-
   SOUTHWEST IOWA

CITY           SKY/WX    TMP DP  RH WIND       PRES   REMARKS
ATLANTIC *     SUNNY     39  25  56 SW14      30.18F WCI  31
AUDUBON *      SUNNY     39  25  56 SW12      30.16F WCI  32
CLARINDA *     SUNNY     41  25  52 S10         N/A
COUNCIL BLFS * SUNNY     39  28  65 SW13      30.16F WCI  32
CRESTON *      SUNNY     39  23  52 SW13      30.20F WCI  32
HARLAN  *      SUNNY     39  25  56 S14       30.19F WCI  31
LAMONI         SUNNY     37  22  54 SW7       30.22S WCI  32
RED OAK *      SUNNY     41  27  56 S14       30.20F
SHENANDOAH *   SUNNY     41  28  60 S12       30.22F
$$

IAZ047>049-059>061-072>074-084-191800-
   CENTRAL IOWA

CITY           SKY/WX    TMP DP  RH WIND       PRES   REMARKS
AMES           SUNNY     36  22  56 W9        30.17F WCI  29
ANKENY *       SUNNY     36  19  51 W7G14     30.20F WCI  30
BOONE *        SUNNY     36  21  55 W12       30.15F WCI  27
CHARITON *     SUNNY     36  19  51 NW6       30.20F WCI  31
DES MOINES     MOSUNNY   37  19  48 W8        30.19F WCI  31
GRINNELL*      MOSUNNY   32  20  62 W10       30.19S WCI  24
KNOXVILLE *    SUNNY     34  18  51 W9        30.19F WCI  26
MARSHALLTOWN   MOSUNNY   33  19  56 W10       30.16S WCI  25
NEWTON *       CLOUDY    34  21  60 W10       30.19S WCI  26
PELLA *        SUNNY     35  21  56 W9        30.22S WCI  27
$$

IAZ004>006-015-016-023>025-035-036-191800-
   NORTH CENTRAL IOWA

CITY           SKY/WX    TMP DP  RH WIND       PRES   REMARKS
ALGONA *       MOSUNNY   34  23  64 SW10      30.09F WCI  26
CLARION *      MOSUNNY   34  25  69 SW10      30.11F WCI  26
ESTHERVILLE    MOSUNNY   34  22  61 SW14      30.06F WCI  25
FORT DODGE *   SUNNY     36  21  54 SW10      30.12F WCI  28
MASON CITY     MOSUNNY   30  19  63 SW9       30.10F WCI  22
FOREST CITY *    N/A     32  23  69 SW9       30.09F WCI  24
WEBSTER CITY * SUNNY     36  21  55 SW10      30.11F WCI  28
IOWA FALLS *     N/A     32  22  65 SW9       30.15S WCI  25
$$

IAZ007>011-017>019-026>030-037>042-050>054-066-191800-
   NORTHEAST IOWA

CITY           SKY/WX    TMP DP  RH WIND       PRES   REMARKS
CEDAR RAPIDS   MOSUNNY   30  14  51 W10       30.16S WCI  21
CHARLES CITY * MOSUNNY   28  16  59 W8        30.12F WCI  20
CLINTON *      SUNNY     30  19  63 W17       30.15S WCI  18
DECORAH *      MOSUNNY   27  12  54 VRB5G12   30.08F WCI  21
DUBUQUE        SUNNY     27  13  55 W10       30.12S WCI  17
MONTICELLO *   MOSUNNY   28  12  50 W8G16     30.13F WCI  20
OELWEIN *      CLOUDY    27  18  69 W12       30.13S WCI  16
WATERLOO       MOSUNNY   29  15  56 W7        30.14F WCI  22
$$

IAZ064-065-067-068-078-191800-
   EAST CENTRAL IOWA

CITY           SKY/WX    TMP DP  RH WIND       PRES   REMARKS
DAVENPORT      MOSUNNY   29  14  53 W13G21    30.19R WCI  19
IOWA CITY      CLOUDY    32  13  45 W9        30.20F WCI  24
MT. PLEASANT * MOSUNNY   31  13  48 W8        30.21S WCI  23
MUSCATINE *    MOSUNNY   30  14  51 W12       30.21S WCI  21
QUAD CITIES    MOSUNNY   30  13  49 W15       30.17S WCI  19
$$

IAZ062-063-075>077-085>089-095>099-191800-
   SOUTHEAST IOWA

CITY           SKY/WX    TMP DP  RH WIND       PRES   REMARKS
BURLINGTON     MOSUNNY   32  17  54 NW12G18   30.20S WCI  23
FAIRFIELD *    MOSUNNY   32  16  51 VRB7G15   30.20F WCI  26
FORT MADISON * MOSUNNY   32  18  55 NW13      30.21F WCI  22
KEOKUK *       MOSUNNY   32  14  47 NW12      30.22S WCI  23
OSKALOOSA *      N/A     33  20  59 W10       30.21S WCI  25
OTTUMWA        SUNNY     34  18  52 W8        30.21S WCI  27
WASHINGTON *   PTSUNNY   32  16  51 W12       30.21F WCI  23
$$

ABBREVIATIONS USED IN REMARKS
   TC - TEMPERATURES IN CELSIUS
  WCI - WIND CHILL INDEX
   HX - HEAT INDEX
  VSB - VISIBILITY
$$





USA.gov is the U.S. government's official web portal to all federal, state and local government web resources and services.